CAPE
0 1 0 0 0 0 0 0 0 0 0 0 0 0 0 0 0 0 0 0 0 0 0 0 0 0 0 0 0 0 0 0 0 0 0 0 0 0 0 0 0 0 0
0 0 0 0 0 0 0 0 0 0 0 0 0 0 0 0 0 0 0 0 0 0 0 0 0 0 0 0 0 0 0 0 0 0 0 0 0 0 0 0 0 0 0
0 0 0 0 0 0 0 0 0 0 0 0 0 0 0 0 0 0 0 0 0 0 0 0 0 0 0 0 0 0 0 0 0 0 0 0 0 0 0 0 0 0 0
0 0 0 0 0 0 0 0 0 0 0 0 0 0 0 0 0 0 0 0 0 0 0 0 0 0 0 0 0 0 0 0 0 0 0 0 0 0 0 0 0 0 0
0 0 0 0 0 0 0 0 0 0 0 0 0 0 0 0 0 0 0 0 0 0 0 0 0 0 0 0 0 0 0 0 0 0 0 0 2 0 2 0 0 0 0
0 0 0 0 0 0 0 0 0 0 0 0 0 0 0 0 0 0 0 0 0 0 0 0 0 0 0 18 15 22 7 0 2 4 7 14 8 1 3 1 1 6 1
0 0 0 0 0 0 0 0 0 0 0 0 0 0 0 0 0 0 0 0 0 0 0 0 0 0 0 0 0 4 8 17 25 20 11 13 10 5 1 2 1 0 0
0 0 0 0 0 0 0 0 0 0 0 0 0 0 0 0 0 0 5 0 0 0 0 0 0 0 0 0 0 0 0 0 0 0 0 0 0 0 0 0 0 1 2
0 0 0 0 0 0 0 0 0 0 0 0 0 0 0 0 0 0 0 0 0 0 0 0 0 0 0 25 11 2 5 1 19 56 51 57 68 78 51 0 3 3 8
0 0 0 0 0 0 0 0 0 0 0 0 0 0 0 0 0 0 0 0 0 0 0 0 15 14 35 21 8 7 2 0 0 0 0 0 4 0 17 0 2 4 1
0 0 0 0 0 0 0 0 0 0 0 0 0 0 0 0 0 1 9 2 0 1 2 1 0 27 38 35 29 12 9 18 26 24 8 1 0 0 0 0 0 0 3
0 0 0 0 0 0 0 0 0 0 0 0 0 0 0 0 0 1 12 16 11 2 6 10 6 39 45 70 82 37 25 18 0 0 0 0 0 0 0 0 0 0 0
0 0 0 0 0 0 0 0 0 0 0 0 0 0 0 0 0 10 14 19 29 18 16 22 28 44 50 31 40 53 19 0 0 0 0 0 0 0 0 0 0 0 0
0 0 0 0 0 0 0 0 0 0 0 0 0 0 0 0 2 0 0 0 9 29 23 0 13 60 36 2 0 0 0 0 0 2 6 5 12 0 2 0 0 0 0
0 0 0 0 0 0 0 0 0 0 0 1 0 0 0 0 1 7 19 16 9 19 40 11 2 1 0 0 0 0 0 1 1 2 3 9 14 1 0 0 1 0 1
0 0 0 0 0 0 0 0 0 0 0 0 2 2 0 12 13 15 31 39 53 51 2 0 0 0 0 0 1 1 0 2 1 1 0 21 11 10 5 1 2 0 2
0 0 0 0 0 0 0 0 0 0 0 0 0 4 11 18 13 17 40 42 15 4 0 0 0 0 0 0 0 1 6 0 0 1 0 8 19 26 19 10 2 8 12
0 0 0 0 0 0 0 0 0 0 0 0 0 1 4 13 26 27 20 7 0 0 0 0 0 0 0 1 0 1 1 2 1 3 2 1 12 21 11 2 4 3 5
0 0 0 0 0 0 0 0 0 0 0 0 0 0 0 1 29 7 5 0 0 1 0 2 0 1 1 1 2 5 6 5 5 2 2 3 5 19 9 2 1 14 17
0 0 0 0 0 0 0 0 0 0 0 0 0 0 0 3 0 0 0 0 1 1 1 1 0 0 0 0 1 1 2 2 4 4 6 8 7 7 6 1 0 5 7
0 0 0 0 0 0 0 0 0 0 0 0 1 1 25 0 0 1 0 0 0 0 0 0 0 1 1 1 2 1 1 2 1 4 8 19 32 10 9 1 2 2 13
0 0 0 0 0 0 0 0 0 0 0 0 0 0 10 0 2 1 0 0 1 1 1 1 0 1 0 0 1 1 1 2 6 15 22 33 27 29 10 1 0 9 19
0 0 0 0 0 0 0 0 0 0 0 0 0 0 0 3 3 1 1 1 0 1 1 1 1 1 1 1 2 2 2 3 19 27 28 28 25 26 7 0 5 9 14
0 0 0 0 0 0 0 0 0 0 0 0 2 2 1 0 3 1 2 3 2 2 1 1 1 0 0 0 1 2 7 15 17 17 20 20 27 21 15 9 8 6 6
0 0 0 0 0 0 0 0 0 0 0 0 0 3 0 0 1 2 3 2 1 1 0 0 0 0 0 0 0 0 1 5 1 2 5 6 6 8 5 3 4 3 3
0 0 0 0 0 0 0 0 0 0 0 0 0 0 0 0 1 2 2 2 0 0 0 0 0 0 0 0 0 0 0 0 0 2 2 2 2 2 3 4 4 3 4
CIN
-0 -0 -0 -0 -0 -0 -0 -0 -0 -0 -0 -0 -0 -0 -0 -0 -0 -0 -0 -0 -0 -0 -0 -0 -0 -0 -0 -0 -0 -0 -0 -0 -0 -0 -0 -0 -0 -0 -0 -0 -0 -0 -0
-0 -0 -0 -0 -0 -0 -0 -0 -0 -0 -0 -0 -0 -0 -0 -0 -0 -0 -0 -0 -0 -0 -0 -0 -0 -0 -0 -0 -0 -0 -0 -0 -0 -0 -0 -0 -0 -0 -0 -0 -0 -0 -0
-0 -0 -0 -0 -0 -0 -0 -0 -0 -0 -0 -0 -0 -0 -0 -0 -0 -0 -0 -0 -0 -0 -0 -0 -0 -0 -0 -0 -0 -0 -0 -0 -0 -0 -0 -0 -0 -0 -0 -0 -0 -0 -0
-0 -0 -0 -0 -0 -0 -0 -0 -0 -0 -0 -0 -0 -0 -0 -0 -0 -0 -0 -0 -0 -0 -0 -0 -0 -0 -0 -0 -0 -0 -0 -0 -0 -0 -0 -0 -0 -0 -0 -0 -0 -0 -0
-0 -0 -0 -0 -0 -0 -0 -0 -0 -0 -0 -0 -0 -0 -0 -0 -0 -0 -0 -0 -0 -0 -0 -0 -0 -0 -0 -0 -0 -0 -0 -0 -0 -0 -0 -0 -13 -0 -3 -10 -0 -0 -0
-0 -0 -0 -0 -0 -0 -0 -0 -0 -0 -0 -0 -0 -0 -0 -0 -0 -0 -0 -0 -0 -0 -0 -0 -0 -0 -0 -1 -0 -0 -6 -8 -24 -9 -1 -0 -3 -10 -16 -11 -4 -0 -0
-0 -0 -0 -0 -0 -0 -0 -0 -0 -0 -0 -0 -0 -0 -0 -0 -0 -0 -0 -0 -0 -0 -0 -0 -0 -0 -0 -0 -0 -0 -0 -0 -0 -11 -13 -4 -3 -12 -4 -10 -3 -0 -0
-0 -0 -0 -0 -0 -0 -0 -0 -0 -0 -0 -0 -0 -0 -0 -0 -0 -0 -0 -0 -0 -0 -0 -0 -0 -0 -0 -0 -0 -0 -0 -0 -0 -0 -0 -0 -0 -0 -0 -0 -0 -0 -0
-0 -0 -0 -0 -0 -0 -0 -0 -0 -0 -0 -0 -0 -0 -0 -0 -0 -0 -0 -0 -0 -0 -0 -0 -0 -0 -0 -0 -5 -6 -6 -13 -3 -0 -0 -0 -0 -0 -2 -4 -0 -0 -0
-0 -0 -0 -0 -0 -0 -0 -0 -0 -0 -0 -0 -0 -0 -0 -0 -0 -0 -0 -0 -0 -0 -0 -0 -8 -3 -0 -0 -4 -5 -7 -0 -0 -0 -0 -0 -7 -0 -0 -0 -10 -1 -6
-0 -0 -0 -0 -0 -0 -0 -0 -0 -0 -0 -0 -0 -0 -0 -0 -0 -0 -0 -3 -0 -1 -1 -4 -0 -0 -0 -0 -0 -7 -11 -0 -1 -0 -0 -0 -0 -0 -0 -0 -0 -0 -0
-0 -0 -0 -0 -0 -0 -0 -0 -0 -0 -0 -0 -0 -0 -0 -0 -0 -0 -0 -0 -0 -1 -4 -10 -25 -5 -0 -0 -0 -0 -0 -2 -0 -0 -0 -0 -0 -0 -0 -0 -0 -0 -0
-0 -0 -0 -0 -0 -0 -0 -0 -0 -0 -0 -0 -0 -0 -0 -0 -0 -1 -0 -0 -0 -2 -4 -1 -0 -0 -0 -2 -0 -0 -0 -0 -0 -0 -0 -0 -0 -0 -0 -0 -0 -0 -0
-0 -0 -0 -0 -0 -0 -0 -0 -0 -0 -0 -0 -0 -0 -0 -0 -7 -0 -0 -0 -16 -1 -11 -0 -7 -0 -0 -2 -0 -0 -0 -0 -0 -0 -3 -3 -0 -0 -0 -0 -0 -0 -0
-0 -0 -0 -0 -0 -0 -0 -0 -0 -0 -0 -0 -0 -0 -0 -0 -3 -1 -1 -1 -3 -2 -0 -2 -0 -0 -0 -0 -0 -0 -0 -2 -0 -0 -0 -0 -0 -0 -0 -0 -0 -0 -0
-0 -0 -0 -0 -0 -0 -0 -0 -0 -0 -0 -0 -0 -1 -3 -0 -0 -0 -0 -0 -0 -0 -1 -0 -0 -0 -0 -0 -0 -0 -1 -0 -1 -3 -0 -0 -0 -0 -0 -0 -0 -0 -0
-0 -0 -0 -0 -0 -0 -0 -0 -0 -0 -0 -0 -0 -0 -0 -0 -0 -0 -0 -0 -0 -1 -0 -0 -0 -0 -0 -0 -0 -0 -0 -0 -0 -0 -0 -0 -0 -0 -0 -0 -0 -0 -0
-0 -0 -0 -0 -0 -0 -0 -0 -0 -0 -0 -0 -0 -0 -0 -0 -0 -0 -0 -0 -0 -0 -0 -0 -0 -0 -0 -0 -0 -0 -0 -0 -0 -0 -0 -0 -0 -0 -0 -0 -0 -0 -0
-0 -0 -0 -0 -0 -0 -0 -0 -0 -0 -0 -0 -0 -0 -0 -0 -0 -0 -0 -0 -0 -0 -0 -0 -0 -0 -0 -0 -0 -0 -0 -0 -0 -0 -0 -0 -0 -0 -0 -0 -0 -0 -0
-0 -0 -0 -0 -0 -0 -0 -0 -0 -0 -0 -0 -0 -0 -0 -4 -0 -0 -0 -0 -0 -0 -0 -0 -0 -0 -0 -0 -0 -0 -0 -0 -0 -0 -0 -0 -0 -0 -0 -0 -0 -0 -2
-0 -0 -0 -0 -0 -0 -0 -0 -0 -0 -0 -0 -0 -0 -0 -0 -0 -0 -0 -0 -0 -0 -0 -0 -0 -0 -0 -0 -0 -0 -0 -0 -0 -0 -0 -0 -0 -0 -0 -0 -0 -0 -0
-0 -0 -0 -0 -0 -0 -0 -0 -0 -0 -0 -0 -0 -0 -0 -0 -0 -0 -0 -0 -0 -0 -0 -0 -0 -0 -0 -0 -0 -0 -0 -0 -0 -0 -0 -0 -0 -0 -0 -0 -0 -0 -0
-0 -0 -0 -0 -0 -0 -0 -0 -0 -0 -0 -0 -1 -0 -0 -0 -0 -0 -0 -0 -0 -0 -0 -0 -0 -0 -0 -0 -0 -0 -0 -0 -0 -0 -0 -0 -0 -0 -0 -0 -0 -0 -0
-0 -0 -0 -0 -0 -0 -0 -0 -0 -0 -0 -0 -1 -0 -1 -0 -0 -0 -0 -0 -0 -0 -0 -0 -0 -0 -0 -0 -0 -0 -0 -0 -0 -0 -0 -0 -0 -0 -0 -0 -0 -0 -0
-0 -0 -0 -0 -0 -0 -0 -1 -0 -0 -0 -0 -0 -0 -0 -0 -0 -0 -0 -0 -0 -0 -0 -0 -0 -0 -0 -0 -0 -0 -0 -0 -0 -0 -0 -0 -0 -0 -0 -0 -0 -0 -0
-0 -0 -0 -0 -0 -0 -0 -0 -0 -0 -0 -0 -0 -0 -0 -0 -0 -0 -0 -0 -0 -0 -0 -0 -0 -0 -0 -0 -0 -0 -0 -0 -0 -0 -0 -0 -0 -0 -0 -0 -0 -0 -0
Wind_Speed
8 7 7 6 6 6 5 4 4 6 6 7 7 7 7 6 5 5 5 6 6 5 3 4 3 3 3 2 2 2 3 3 4 3 3 3 4 6 7 5 6 5 6
9 10 9 9 8 9 7 7 7 8 7 7 7 7 6 6 5 5 6 5 6 4 4 3 3 3 3 3 3 4 4 4 4 6 4 4 6 6 6 5 6 6 5
11 12 11 10 11 10 8 7 7 7 7 7 6 6 5 4 4 3 4 4 4 4 4 5 5 5 4 4 5 4 4 4 4 4 5 3 5 3 4 4 6 6 6
11 11 11 9 8 7 7 7 7 6 7 6 6 5 4 2 2 3 2 2 2 3 5 6 6 7 7 7 5 7 5 5 4 4 4 4 4 5 3 5 5 3 4
11 10 8 7 7 7 8 7 6 7 7 6 6 5 3 1 1 2 2 3 4 5 5 5 6 9 14 11 6 6 5 4 5 5 6 5 6 7 6 3 4 7 7
9 8 6 7 7 6 6 6 7 6 6 5 5 3 3 3 6 7 3 4 5 5 6 6 6 11 11 16 17 20 14 8 9 6 8 8 10 4 6 6 7 6 8
7 6 6 6 6 6 6 6 6 5 4 5 5 4 4 4 8 10 12 3 3 4 5 5 5 4 8 5 12 20 19 21 21 12 9 7 8 8 5 8 9 10 9
7 7 6 7 6 6 6 6 4 3 3 2 3 3 3 4 8 9 10 3 3 5 6 6 6 7 7 8 8 10 11 10 10 7 8 10 9 10 9 10 8 7 8
6 6 5 4 4 4 4 3 2 2 2 2 2 3 3 4 9 11 10 5 5 7 6 6 7 7 14 20 12 10 11 9 12 21 20 21 21 23 15 4 5 6 6
5 4 4 4 4 4 2 1 1 1 2 2 3 2 4 4 9 13 13 5 5 5 6 7 15 13 19 20 11 9 10 10 7 6 7 8 12 8 12 4 2 5 5
5 5 5 5 5 3 2 2 2 2 2 3 4 4 5 5 7 15 18 6 6 6 5 4 4 15 20 21 20 9 9 9 11 7 5 5 6 4 3 4 4 4 6
6 6 6 5 4 3 4 3 2 3 4 4 4 5 4 6 12 13 17 16 15 7 7 5 6 18 21 22 16 14 17 15 1 2 3 5 6 5 4 3 5 5 6
6 6 5 5 4 4 4 4 3 4 3 4 3 4 5 4 4 14 17 19 17 11 7 13 21 21 21 15 14 16 16 4 4 4 6 6 6 4 3 3 4 6 6
6 5 4 4 5 5 3 2 2 3 3 3 5 5 5 5 5 4 6 7 12 9 13 10 12 15 13 14 11 8 4 4 5 6 6 4 4 4 4 3 3 4 3
5 4 3 3 3 4 3 2 3 3 4 5 4 4 6 6 7 15 13 8 7 10 14 3 3 4 4 6 6 5 5 5 6 6 6 6 5 6 6 4 4 4 4
4 3 2 2 3 3 3 4 9 11 15 14 14 11 6 15 19 19 18 19 19 18 6 4 5 5 6 6 7 6 6 8 5 6 6 6 6 6 6 4 4 5 7
4 3 2 3 2 3 3 4 6 6 11 13 14 14 15 17 17 18 19 19 17 15 4 6 6 6 7 7 7 7 7 6 6 5 7 7 6 6 8 4 4 5 6
3 5 3 1 2 2 3 3 3 5 7 7 11 14 15 16 19 18 18 14 7 7 5 6 7 7 8 8 8 8 8 7 7 7 6 6 6 6 6 5 5 6 6
3 2 2 2 2 3 3 3 3 4 5 6 7 9 13 18 18 17 15 4 6 7 7 8 8 8 8 8 8 8 9 8 8 7 7 6 7 6 7 5 5 11 11
1 4 4 3 3 3 3 3 3 4 5 5 8 8 8 8 8 8 7 7 7 7 7 8 8 8 9 9 9 8 8 8 7 7 7 6 6 6 6 5 6 7 7
2 2 5 3 3 2 3 3 3 4 5 6 7 9 20 9 8 8 8 8 8 8 8 8 8 8 8 8 8 8 8 8 7 6 6 5 5 6 5 6 6 6 7
3 3 2 2 1 3 3 3 4 4 5 7 9 10 20 8 7 8 8 8 8 8 7 8 8 8 8 8 8 8 8 7 6 5 5 5 5 5 5 5 6 7 7
3 3 2 1 2 5 4 4 4 4 8 7 8 9 10 8 8 8 9 9 9 8 8 7 8 8 7 7 6 6 6 5 4 4 4 5 5 5 6 5 6 7 7
4 3 2 1 2 3 4 5 7 10 9 7 8 8 9 8 9 9 8 9 8 9 8 8 7 10 9 7 6 5 4 4 3 4 5 4 4 6 5 6 7 8 8
3 3 2 1 2 2 4 5 7 8 8 7 7 8 9 9 9 9 8 8 8 9 9 9 7 10 10 13 10 8 8 11 6 6 4 6 8 9 7 7 8 9 11
3 3 1 0 2 3 3 6 7 7 7 7 8 8 8 9 9 9 9 8 9 9 10 8 10 14 14 11 11 16 15 12 9 10 7 7 8 8 8 10 13 10 12
Wind_Direction
72 77 101 108 118 99 87 87 93 97 104 107 111 107 105 102 109 122 132 135 137 143 151 160 163 156 164 159 144 157 195 171 217 282 247 266 269 265 279 286 275 271 271
81 78 75 75 72 76 78 75 79 89 83 96 92 92 106 125 139 144 155 153 150 167 186 172 213 191 210 189 179 210 221 209 196 253 244 248 235 260 250 273 279 267 247
83 83 77 73 76 73 69 69 70 79 78 78 96 108 119 137 150 156 164 173 189 206 197 205 231 193 214 212 217 228 223 247 207 215 264 243 257 256 276 254 257 271 264
79 79 81 78 83 83 83 78 79 81 86 79 74 79 79 95 135 183 192 231 255 243 236 231 233 210 218 220 226 231 231 238 240 223 238 251 240 258 229 260 276 225 274
78 77 73 73 73 73 69 67 68 63 61 59 64 56 51 43 264 237 237 235 241 262 263 253 242 240 247 234 228 232 222 234 245 245 255 243 258 276 254 233 275 290 272
80 82 82 79 79 80 80 75 70 69 67 69 65 64 36 354 338 325 298 229 252 250 259 264 259 278 281 282 284 290 276 262 252 247 262 262 270 243 253 255 257 264 287
94 97 96 99 91 82 82 81 72 61 54 39 25 14 350 328 327 321 314 322 281 269 258 261 272 252 276 272 284 285 285 283 281 273 254 254 263 247 265 267 256 259 257
67 65 63 68 70 61 59 55 51 42 32 353 337 335 326 307 316 313 314 17 315 281 264 257 253 259 256 266 250 257 257 255 256 262 255 252 239 251 234 242 256 255 257
78 78 76 86 91 82 81 66 30 10 336 316 307 318 316 318 328 324 321 306 287 278 268 257 246 253 269 283 274 260 267 272 274 275 272 269 272 268 274 236 232 239 244
85 82 72 74 79 79 72 46 5 359 323 338 338 349 308 320 317 314 312 279 275 272 266 257 265 275 280 289 287 284 284 271 248 249 264 278 280 280 282 291 256 258 251
84 75 66 65 82 66 54 33 11 1 12 359 339 321 305 296 292 304 307 289 276 276 262 259 241 273 290 289 285 270 268 285 291 294 290 265 258 248 258 260 226 226 251
84 81 74 62 46 35 33 8 22 20 1 341 324 311 295 287 301 307 310 307 303 300 300 282 264 281 286 286 290 306 308 321 44 268 257 259 251 244 222 230 249 237 237
88 78 65 57 41 29 29 12 4 358 347 316 303 293 294 281 277 308 313 311 308 304 296 292 303 308 308 313 302 296 317 330 296 275 271 267 260 253 266 255 255 249 245
95 83 67 52 40 16 6 1 341 339 323 302 303 300 292 285 303 283 280 284 294 299 289 288 290 303 319 304 301 286 272 258 261 262 262 265 269 254 246 227 247 261 257
99 87 73 57 34 360 353 295 324 288 283 315 299 296 317 314 309 312 321 313 303 291 307 318 299 291 293 296 290 282 268 255 273 271 269 269 259 264 258 232 237 247 245
100 96 63 49 6 11 357 339 343 343 335 334 332 325 312 315 317 323 321 317 318 327 341 315 303 291 283 285 280 279 267 273 268 268 267 268 270 261 261 234 230 245 260
115 141 55 47 16 5 357 354 335 333 338 337 338 335 326 321 325 326 321 325 339 337 312 300 288 281 276 274 275 275 275 252 248 255 260 265 262 257 268 246 249 255 253
93 94 89 48 29 26 8 350 326 327 328 327 333 338 333 330 326 327 338 343 323 317 288 282 285 283 281 281 278 276 275 271 254 248 245 248 256 258 253 235 238 235 254
117 116 105 74 57 30 2 349 326 321 316 316 328 339 329 322 323 333 333 306 297 301 298 292 289 286 283 281 279 275 271 267 263 250 246 242 246 245 258 226 240 260 248
106 93 101 79 31 7 352 334 332 326 321 330 338 327 316 323 336 329 322 314 304 300 298 294 293 289 284 282 279 274 271 267 261 255 250 246 242 247 240 237 238 249 246
119 72 100 62 28 340 320 327 321 317 320 319 321 333 338 346 321 317 314 313 308 304 301 298 296 293 289 287 282 279 273 268 258 247 243 242 239 251 230 239 246 253 257
121 114 90 45 0 329 325 324 309 322 326 335 338 331 341 336 322 316 314 311 312 309 305 299 299 299 301 299 299 296 290 281 271 248 242 245 246 246 237 236 248 254 254
128 129 85 37 348 354 341 312 334 341 347 333 339 339 341 331 325 322 319 325 330 321 312 309 307 309 308 311 308 306 305 301 295 280 261 256 246 245 241 240 251 254 253
139 137 97 19 341 15 333 315 356 351 344 332 333 338 330 324 326 321 322 330 325 316 316 314 310 307 312 314 309 300 303 301 294 290 285 273 269 271 262 253 251 254 258
148 139 92 6 345 328 313 346 352 351 343 330 331 328 322 324 323 321 320 320 317 317 317 315 309 314 315 316 304 299 295 300 280 264 259 258 261 263 254 256 256 259 258
152 132 112 330 339 324 306 346 346 348 339 330 327 323 320 324 320 321 324 325 322 316 316 316 316 319 323 322 319 316 312 281 267 249 239 240 247 248 246 247 250 250 253